C/2019 F2 ( ATLAS )

Japanese version
Home page
Updated on September 17, 2019

---------------------------------------------------------------------

* Profile

Discovery Date March 26, 2019
Magnitude 17.5 mag
Discoverer Asteroid Terrestrial-Impact Last Alert System (ATLAS) search program

* Pictures

* Orbital Elements

Epoch 2019 Aug. 25.0 TT = JDT 2458720.5
T 2019 Sept. 8.90752 TT                                 Williams
q   2.2328218            (2000.0)            P               Q
n   0.01466750     Peri.   10.95793     -0.99214784     +0.12280980
a  16.5284414      Node   175.86961     -0.12425927     -0.98941828
e   0.8649103      Incl.   19.18840     +0.01422347     -0.07726074
P  67.2
From 570 observations 2019 Feb. 26-June 26, mean residual 0".4.

* Finding Charts

* Magnitudes Graph

        m1 = 10.2 + 5 log d + 10.0 log r

---------------------------------------------------------------------

The orbital elements are published on M.P.E.C. 2019-Q135.
The charts are made with StellaNavigator Ver.10 (AstroArts).
The magnitudes graphs are made with Comet for Windows.

---------------------------------------------------------------------

Copyright(C) Seiichi Yoshida (comet@aerith.net). All rights reserved.